Flag for Sudan Weather past 2 weeks in Khartoum, Sudan

Now
90 °F

Sunny.


Feels Like: 87 °F
Forecast: 69 / 99 °F
Wind: 12 mph from North

Location: Khartoum Airport

Current Time: Feb 1, 2015 at 12:19:10 PM

Latest Report: Feb 1, 2015 at 12:00 PM


Visibility: 10 mi

Pressure: 29.95 "Hg

Humidity: 26%

Dew point: 50 °F

Location of KhartoumLocation

Historic Weather in Khartoum — Graph

°F

Khartoum temperature yesterday

Maximum temperature yesterday: 99 °F (at 3:00 PM)
Minimum temperature yesterday: 72 °F (at 7:00 AM)
Average temperature yesterday: 85 °F

Past Weeks' High & Low Weather Summary

 TemperatureHumidityPressure
High99 °F (Jan 30, 4:00 PM)44% (Jan 24, 8:00 AM)30.12 "Hg (Jan 24, 8:00 AM)
Low55 °F (Jan 18, 7:00 AM)10% (Jan 30, 4:00 PM)29.77 "Hg (Jan 24, 3:00 PM)
Average79 °F25%29.92 "Hg
* Reported Jan 17 11:00 AM — Feb 1 11:00 AM, Khartoum, Weather by CustomWeather, © 2014

Note: Actual official high and low records may vary slightly from our data, if they occured in-between our weather recording intervals... More about our weather records

Advertising

Khartoum weather history for previous 24 hours

 ConditionsComfort  
Time TempWeatherWind HumidityBarometerVisibility
11:00 AM
Feb 1
86 °FSunny.15 mph33%29.95 "Hg10 mi
10:30 AMN/ASunny.15 mphN/A29.95 "Hg10 mi
10:00 AM79 °FSunny.13 mph37%29.95 "Hg10 mi
9:30 AMN/ASunny.15 mphN/A29.95 "Hg10 mi
9:00 AM73 °FSunny.14 mph41%29.92 "Hg10 mi
8:30 AMN/ASunny.15 mphN/A29.92 "Hg10 mi
8:00 AM73 °FSunny.12 mph38%29.89 "Hg10 mi
7:00 AM73 °FClear.14 mph38%29.89 "Hg10 mi
6:00 AM75 °FClear.15 mph29%29.89 "Hg10 mi
5:30 AMN/AClear.15 mphN/A29.89 "Hg10 mi
5:00 AM75 °FClear.14 mph29%29.89 "Hg10 mi
3:30 AMN/AClear.8 mphN/A29.89 "Hg10 mi
3:00 AM77 °FClear.10 mph30%29.92 "Hg10 mi
2:30 AMN/AClear.6 mphN/A29.92 "Hg10 mi
2:00 AM79 °FClear.8 mph34%29.92 "Hg10 mi
1:30 AMN/AClear.9 mphN/A29.92 "Hg10 mi
1:00 AM81 °FClear.8 mph26%29.92 "Hg10 mi
12:30 AMN/AClear.8 mphN/A29.95 "Hg10 mi
12:00 AM82 °FClear.12 mph25%29.95 "Hg10 mi
11:30 PM
Jan 31
N/AClear.8 mphN/A29.95 "Hg10 mi
11:00 PM86 °FClear.9 mph22%29.95 "Hg10 mi
10:30 PMN/AClear.12 mphN/A29.92 "Hg10 mi
10:00 PM88 °FClear.14 mph24%29.92 "Hg10 mi
9:30 PMN/AClear.12 mphN/A29.92 "Hg10 mi
9:00 PM90 °FClear.15 mph21%29.89 "Hg10 mi
8:30 PMN/AClear.14 mphN/A29.89 "Hg10 mi
8:00 PM90 °FClear.12 mph21%29.89 "Hg10 mi
7:30 PMN/AClear.10 mphN/A29.89 "Hg10 mi
7:00 PM93 °FClear.13 mph16%29.86 "Hg10 mi
6:30 PMN/ASunny.13 mphN/A29.86 "Hg10 mi
6:00 PM95 °FSunny.17 mph13%29.83 "Hg10 mi
5:30 PMN/ASunny.15 mphN/A29.83 "Hg10 mi
5:00 PM99 °FSunny.16 mph15%29.83 "Hg10 mi
4:30 PMN/ASunny.15 mphN/A29.83 "Hg10 mi
4:00 PM99 °FSunny.17 mph13%29.83 "Hg10 mi
3:30 PMN/ASunny.14 mphN/A29.86 "Hg10 mi
3:00 PM99 °FSunny.12 mph13%29.86 "Hg10 mi
2:30 PMN/ASunny.12 mphN/A29.89 "Hg10 mi
2:00 PM97 °FSunny.7 mph16%29.89 "Hg10 mi
1:30 PMN/ASunny.8 mphN/A29.89 "Hg10 mi
1:00 PM91 °FSunny.9 mph20%29.92 "Hg10 mi
12:30 PMN/ASunny.7 mphN/A29.92 "Hg10 mi
12:00 PM86 °FSunny.9 mph24%29.95 "Hg10 mi
Weather by CustomWeather, © 2014

See weather overviewHow to use our weather pages